This is the latest recevied weather packets stored in our database for station/object NR6G-5. If no packets are shown the sender has not sent any weather packets the latest 10 day(s).
| Time | Temp. | Humidity | Pressure | Rain* | Wind** | Luminosity | Snow |
|---|---|---|---|---|---|---|---|
| 1777600209 | 28.33° C | 30% | 1008.6 hPa | 0 mm | - | - | - |
| 1777599906 | 28.33° C | 30% | 1008.7 hPa | 0 mm | - | - | - |
| 1777599007 | 28.89° C | 28% | 1008.6 hPa | 0 mm | - | - | - |
| 1777598707 | 28.89° C | 29% | 1008.5 hPa | 0 mm | - | - | - |
| 1777598407 | 28.89° C | 28% | 1008.6 hPa | 0 mm | - | - | - |
| 1777597810 | 28.89° C | 27% | 1008.6 hPa | 0 mm | - | - | - |
| 1777596906 | 28.89° C | 29% | 1008.6 hPa | 0 mm | - | - | - |
| 1777596307 | 28.89° C | 29% | 1008.6 hPa | 0 mm | - | - | - |
| 1777595185 | 28.89° C | 29% | 1008.6 hPa | 0 mm | - | - | - |
| 1777594887 | 28.89° C | 30% | 1008.6 hPa | 0 mm | - | - | - |
| 1777594586 | 29.44° C | 29% | 1008.6 hPa | 0 mm | - | - | - |
| 1777594287 | 28.89° C | 30% | 1008.7 hPa | 0 mm | - | - | - |
| 1777593986 | 28.89° C | 30% | 1008.6 hPa | 0 mm | - | - | - |
| 1777593685 | 28.89° C | 31% | 1008.6 hPa | 0 mm | - | - | - |
| 1777593085 | 28.89° C | 30% | 1008.7 hPa | 0 mm | - | - | - |
| 1777592785 | 28.89° C | 31% | 1008.7 hPa | 0 mm | - | - | - |
| 1777592485 | 28.33° C | 32% | 1008.7 hPa | 0 mm | - | - | - |
| 1777591948 | 28.33° C | 33% | 1008.7 hPa | 0 mm | - | - | - |
| 1777590447 | 28.33° C | 33% | 1008.8 hPa | 0 mm | - | - | - |
| 1777590147 | 28.33° C | 34% | 1009 hPa | 0 mm | - | - | - |
| 1777589851 | 27.78° C | 35% | 1009.1 hPa | 0 mm | - | - | - |
| 1777589546 | 28.33° C | 34% | 1009.2 hPa | 0 mm | - | - | - |
| 1777589247 | 28.33° C | 35% | 1009.2 hPa | 0 mm | - | - | - |
| 1777588946 | 28.33° C | 35% | 1009.2 hPa | 0 mm | - | - | - |
| 1777588649 | 28.33° C | 34% | 1009.4 hPa | 0 mm | - | - | - |
* Rain latest hour (hover to see other rain measurements)
** Current wind speed in m/s (hover to see current wind gust speed)